Time,TemperatureF,DewpointF,PressureIn,WindDirection,WindDirectionDegrees,WindSpeedMPH,WindSpeedGustMPH,Humidity,HourlyPrecipIn,Conditions,Clouds,dailyrainin,SoftwareType,DateUTC
2013-10-12 00:01:00,47.7,41.8,30.41,North,0,0.0,1.3,80,0.00,,,0.00,WeatherCatV1.21B27,2013-10-11 23:01:00,
2013-10-12 00:11:00,47.7,41.8,30.41,North,0,0.7,2.5,80,0.00,,,0.00,WeatherCatV1.21B27,2013-10-11 23:11:00,
2013-10-12 00:21:00,-999.0,-99.9,30.41,North,0,1.8,3.1,80,0.00,,,0.00,WeatherCatV1.21B27,2013-10-11 23:21:00,
2013-10-12 00:31:00,47.8,41.9,30.41,NW,315,0.0,2.0,80,0.00,,,0.00,WeatherCatV1.21B27,2013-10-11 23:31:00,
2013-10-12 00:41:00,47.8,41.6,30.41,North,0,0.0,1.8,79,0.00,,,0.00,WeatherCatV1.21B27,2013-10-11 23:41:00,
2013-10-12 00:51:00,47.8,41.9,30.41,NNW,337,0.7,1.6,79,0.00,,,0.00,WeatherCatV1.21B27,2013-10-11 23:51:00,
2013-10-12 01:01:00,47.8,41.6,30.41,South,180,2.0,2.0,79,0.00,,,0.00,WeatherCatV1.21B27,2013-10-12 00:01:00,
2013-10-12 01:11:00,47.8,41.9,30.40,NNW,337,1.3,2.0,80,0.00,,,0.00,WeatherCatV1.21B27,2013-10-12 00:11:00,
2013-10-12 01:21:00,47.8,41.9,30.40,North,0,0.0,0.0,80,0.00,,,0.00,WeatherCatV1.21B27,2013-10-12 00:21:00,
2013-10-12 01:31:00,47.8,41.9,30.41,SE,135,0.0,0.0,80,0.00,,,0.00,WeatherCatV1.21B27,2013-10-12 00:31:00,
2013-10-12 01:41:00,47.7,41.8,30.41,South,180,0.0,3.4,80,0.00,,,0.00,WeatherCatV1.21B27,2013-10-12 00:41:00,
2013-10-12 01:51:00,47.7,41.8,30.40,WSW,247,0.0,0.0,80,0.00,,,0.00,WeatherCatV1.21B27,2013-10-12 00:51:00,
2013-10-12 02:01:00,47.5,41.6,30.40,NNW,337,0.0,1.8,80,0.00,,,0.00,WeatherCatV1.21B27,2013-10-12 01:01:00,
2013-10-12 02:11:00,47.5,41.6,30.40,North,0,0.9,2.0,80,0.00,,,0.00,WeatherCatV1.21B27,2013-10-12 01:11:00,
2013-10-12 02:21:00,47.5,41.6,30.40,NW,315,0.0,2.5,80,0.00,,,0.00,WeatherCatV1.21B27,2013-10-12 01:21:00,
2013-10-12 02:31:00,47.5,41.6,30.40,North,0,1.1,3.1,80,0.00,,,0.00,WeatherCatV1.21B27,2013-10-12 01:31:00,
2013-10-12 02:41:00,47.5,41.6,30.40,NNE,22,0.0,2.5,80,0.00,,,0.00,WeatherCatV1.21B27,2013-10-12 01:41:00,
2013-10-12 02:51:00,47.5,41.6,30.39,NNE,22,0.0,3.1,80,0.00,,,0.00,WeatherCatV1.21B27,2013-10-12 01:51:00,
2013-10-12 03:01:00,47.5,41.6,30.40,North,0,1.6,1.6,80,0.00,,,0.00,WeatherCatV1.21B27,2013-10-12 02:01:00,
2013-10-12 03:11:00,47.7,41.8,30.39,NW,315,0.0,0.0,80,0.00,,,0.00,WeatherCatV1.21B27,2013-10-12 02:11:00,
2013-10-12 03:21:00,47.5,41.6,30.38,North,0,0.0,1.3,80,0.00,,,0.00,WeatherCatV1.21B27,2013-10-12 02:21:00,
2013-10-12 03:31:00,47.3,41.5,30.38,North,0,0.0,2.5,80,0.00,,,0.00,WeatherCatV1.21B27,2013-10-12 02:31:00,
2013-10-12 03:41:00,47.3,41.5,30.38,NW,315,0.0,0.0,80,0.00,,,0.00,WeatherCatV1.21B27,2013-10-12 02:41:00,
2013-10-12 03:51:00,47.1,41.6,30.38,West,270,0.0,1.8,81,0.00,,,0.00,WeatherCatV1.21B27,2013-10-12 02:51:00,
2013-10-12 04:01:00,47.1,41.6,30.38,NW,315,0.0,0.0,81,0.00,,,0.00,WeatherCatV1.21B27,2013-10-12 03:01:00,
2013-10-12 04:11:00,47.1,41.6,30.38,NE,45,1.6,4.5,81,0.00,,,0.00,WeatherCatV1.21B27,2013-10-12 03:11:00,
2013-10-12 04:21:00,47.5,41.9,30.38,SSE,157,0.0,2.5,81,0.00,,,0.00,WeatherCatV1.21B27,2013-10-12 03:21:00,
2013-10-12 04:31:00,47.3,41.5,30.38,NW,315,2.9,2.9,80,0.00,,,0.00,WeatherCatV1.21B27,2013-10-12 03:31:00,
2013-10-12 04:41:00,47.3,41.5,30.37,NW,315,0.0,0.9,80,0.00,,,0.00,WeatherCatV1.21B27,2013-10-12 03:41:00,
2013-10-12 04:51:00,47.3,41.5,30.37,ENE,67,0.0,0.0,80,0.00,,,0.00,WeatherCatV1.21B27,2013-10-12 03:51:00,
2013-10-12 05:01:00,47.3,41.8,30.38,NNE,22,0.0,2.7,81,0.00,,,0.00,WeatherCatV1.21B27,2013-10-12 04:01:00,
2013-10-12 05:11:00,47.3,41.8,30.38,South,180,0.0,2.0,81,0.00,,,0.00,WeatherCatV1.21B27,2013-10-12 04:11:00,
2013-10-12 05:21:00,47.5,41.9,30.38,North,0,0.0,0.9,81,0.00,,,0.00,WeatherCatV1.21B27,2013-10-12 04:21:00,
2013-10-12 05:31:00,47.7,42.1,30.37,SSW,202,0.0,0.0,81,0.00,,,0.00,WeatherCatV1.21B27,2013-10-12 04:31:00,
2013-10-12 05:41:00,47.8,42.2,30.38,North,0,0.0,0.0,81,0.00,,,0.00,WeatherCatV1.21B27,2013-10-12 04:41:00,
2013-10-12 05:51:00,47.8,42.6,30.38,SW,225,0.0,0.9,82,0.00,,,0.00,WeatherCatV1.21B27,2013-10-12 04:51:00,
2013-10-12 06:01:00,47.8,42.6,30.38,WSW,247,0.0,0.0,82,0.00,,,0.00,WeatherCatV1.21B27,2013-10-12 05:01:00,
2013-10-12 06:11:00,47.8,42.6,30.38,SW,225,1.8,1.8,82,0.00,,,0.00,WeatherCatV1.21B27,2013-10-12 05:11:00,
2013-10-12 06:21:00,48.0,42.7,30.38,WNW,292,0.0,3.4,82,0.00,,,0.00,WeatherCatV1.21B27,2013-10-12 05:21:00,
2013-10-12 06:31:00,48.0,42.4,30.38,West,270,0.0,0.0,81,0.00,,,0.00,WeatherCatV1.21B27,2013-10-12 05:31:00,
2013-10-12 06:41:00,48.0,42.4,30.37,NNW,337,0.0,0.9,81,0.00,,,0.00,WeatherCatV1.21B27,2013-10-12 05:41:00,
2013-10-12 06:51:00,48.0,42.4,30.37,North,0,0.0,0.0,81,0.00,,,0.00,WeatherCatV1.21B27,2013-10-12 05:51:00,
2013-10-12 07:01:00,47.8,42.2,30.37,NW,315,0.0,0.0,81,0.00,,,0.00,WeatherCatV1.21B27,2013-10-12 06:01:00,
2013-10-12 07:11:00,47.8,42.6,30.37,North,0,0.0,0.0,82,0.00,,,0.00,WeatherCatV1.21B27,2013-10-12 06:11:00,
2013-10-12 07:21:00,47.8,42.6,30.37,NNE,22,0.0,0.0,82,0.00,,,0.00,WeatherCatV1.21B27,2013-10-12 06:21:00,
2013-10-12 07:31:00,47.8,42.6,30.36,WNW,292,0.0,0.9,82,0.00,,,0.00,WeatherCatV1.21B27,2013-10-12 06:31:00,
2013-10-12 07:41:00,47.8,42.6,30.37,NNE,22,0.0,0.0,82,0.00,,,0.00,WeatherCatV1.21B27,2013-10-12 06:41:00,
2013-10-12 07:51:00,47.8,42.6,30.37,North,0,0.0,0.9,82,0.00,,,0.00,WeatherCatV1.21B27,2013-10-12 06:51:00,
2013-10-12 08:01:00,47.8,42.6,30.37,North,0,0.0,0.0,82,0.00,,,0.00,WeatherCatV1.21B27,2013-10-12 07:01:00,
2013-10-12 08:11:00,47.8,42.6,30.37,NNW,337,0.0,0.9,82,0.00,,,0.00,WeatherCatV1.21B27,2013-10-12 07:11:00,
2013-10-12 08:21:00,47.8,42.6,30.37,North,0,1.1,3.8,82,0.00,,,0.00,WeatherCatV1.21B27,2013-10-12 07:21:00,
2013-10-12 08:31:00,47.8,42.6,30.37,North,0,0.0,0.0,82,0.00,,,0.00,WeatherCatV1.21B27,2013-10-12 07:31:00,
2013-10-12 08:41:00,47.8,42.6,30.37,NW,315,0.0,0.0,82,0.00,,,0.00,WeatherCatV1.21B27,2013-10-12 07:41:00,
2013-10-12 08:51:00,48.0,42.7,30.36,WNW,292,0.0,1.6,82,0.00,,,0.00,WeatherCatV1.21B27,2013-10-12 07:51:00,
2013-10-12 09:01:00,48.2,42.9,30.37,NNW,337,0.0,0.0,82,0.00,,,0.00,WeatherCatV1.21B27,2013-10-12 08:01:00,
2013-10-12 09:11:00,48.4,42.8,30.36,NNE,22,0.0,2.0,81,0.00,,,0.00,WeatherCatV1.21B27,2013-10-12 08:11:00,
2013-10-12 09:21:00,48.4,42.8,30.36,NNW,337,0.0,2.2,81,0.00,,,0.00,WeatherCatV1.21B27,2013-10-12 08:21:00,
2013-10-12 09:31:00,48.6,42.9,30.37,West,270,0.0,1.8,81,0.00,,,0.00,WeatherCatV1.21B27,2013-10-12 08:31:00,
2013-10-12 09:41:00,48.9,43.6,30.36,South,180,2.0,2.9,82,0.00,,,0.00,WeatherCatV1.21B27,2013-10-12 08:41:00,
2013-10-12 09:51:00,49.3,43.7,30.36,North,0,0.0,2.9,81,0.00,,,0.00,WeatherCatV1.21B27,2013-10-12 08:51:00,
2013-10-12 10:01:00,49.6,44.0,30.36,NW,315,0.0,1.6,81,0.00,,,0.00,WeatherCatV1.21B27,2013-10-12 09:01:00,
2013-10-12 10:11:00,49.8,44.2,30.36,SW,225,0.0,0.0,81,0.00,,,0.00,WeatherCatV1.21B27,2013-10-12 09:11:00,
2013-10-12 10:21:00,50.2,44.2,30.36,East,90,0.0,2.0,80,0.00,,,0.00,WeatherCatV1.21B27,2013-10-12 09:21:00,
2013-10-12 10:31:00,50.5,44.6,30.36,WNW,292,0.0,0.0,80,0.00,,,0.00,WeatherCatV1.21B27,2013-10-12 09:31:00,
2013-10-12 10:41:00,50.9,44.6,30.36,WNW,292,0.9,2.9,79,0.00,,,0.00,WeatherCatV1.21B27,2013-10-12 09:41:00,
2013-10-12 10:51:00,51.1,44.5,30.36,SE,135,2.0,2.0,78,0.00,,,0.00,WeatherCatV1.21B27,2013-10-12 09:51:00,
2013-10-12 11:01:00,51.1,44.1,30.36,NW,315,1.3,3.6,77,0.00,,,0.00,WeatherCatV1.21B27,2013-10-12 10:01:00,
2013-10-12 11:11:00,51.1,44.1,30.36,NE,45,3.8,4.0,77,0.00,,,0.00,WeatherCatV1.21B27,2013-10-12 10:11:00,
2013-10-12 11:21:00,51.1,44.5,30.35,WNW,292,0.7,3.4,78,0.00,,,0.00,WeatherCatV1.21B27,2013-10-12 10:21:00,
2013-10-12 11:31:00,51.3,45.0,30.36,NW,315,0.0,2.5,79,0.00,,,0.00,WeatherCatV1.21B27,2013-10-12 10:31:00,
2013-10-12 11:41:00,51.3,45.0,30.35,SE,135,0.0,0.9,79,0.00,,,0.00,WeatherCatV1.21B27,2013-10-12 10:41:00,
2013-10-12 11:51:00,51.4,45.0,30.36,West,270,0.0,3.8,79,0.00,,,0.00,WeatherCatV1.21B27,2013-10-12 10:51:00,
2013-10-12 12:01:00,51.4,45.5,30.35,WSW,247,0.0,0.0,80,0.00,,,0.00,WeatherCatV1.21B27,2013-10-12 11:01:00,
2013-10-12 12:11:00,51.3,45.3,30.35,SSW,202,0.0,1.1,80,0.00,,,0.00,WeatherCatV1.21B27,2013-10-12 11:11:00,
2013-10-12 12:21:00,51.3,45.6,30.36,North,0,0.0,0.0,81,0.00,,,0.00,WeatherCatV1.21B27,2013-10-12 11:21:00,
2013-10-12 12:31:00,51.1,45.8,30.35,NNW,337,0.0,2.9,82,0.00,,,0.00,WeatherCatV1.21B27,2013-10-12 11:31:00,
2013-10-12 12:41:00,51.1,45.8,30.35,NNW,337,0.0,2.9,82,0.00,,,0.00,WeatherCatV1.21B27,2013-10-12 11:41:00,
2013-10-12 12:51:00,50.9,45.9,30.35,SSW,202,0.0,1.1,83,0.00,,,0.00,WeatherCatV1.21B27,2013-10-12 11:51:00,
2013-10-12 13:01:00,51.1,46.4,30.35,NNW,337,1.1,1.1,84,0.00,,,0.00,WeatherCatV1.21B27,2013-10-12 12:01:00,
2013-10-12 13:11:00,51.1,46.4,30.34,NE,45,0.0,2.2,84,0.00,,,0.00,WeatherCatV1.21B27,2013-10-12 12:11:00,
2013-10-12 13:21:00,51.4,46.7,30.34,NW,315,0.0,2.0,84,0.00,,,0.00,WeatherCatV1.21B27,2013-10-12 12:21:00,
2013-10-12 13:31:00,51.6,46.6,30.34,North,0,0.0,0.0,83,0.00,,,0.00,WeatherCatV1.21B27,2013-10-12 12:31:00,
2013-10-12 13:41:00,51.6,46.6,30.33,North,0,0.0,0.0,83,0.00,,,0.00,WeatherCatV1.21B27,2013-10-12 12:41:00,
2013-10-12 13:51:00,51.6,46.6,30.33,North,0,0.0,1.6,83,0.00,,,0.00,WeatherCatV1.21B27,2013-10-12 12:51:00,
2013-10-12 14:01:00,51.4,46.7,30.33,North,0,0.0,3.6,84,0.00,,,0.00,WeatherCatV1.21B27,2013-10-12 13:01:00,
2013-10-12 14:11:00,51.4,47.0,30.33,SW,225,3.1,3.1,85,0.00,,,0.00,WeatherCatV1.21B27,2013-10-12 13:11:00,
2013-10-12 14:21:00,51.4,46.8,30.33,NNW,337,0.0,0.0,85,0.00,,,0.00,WeatherCatV1.21B27,2013-10-12 13:21:00,
2013-10-12 14:31:00,51.4,47.0,30.33,SSE,157,1.3,2.7,85,0.00,,,0.00,WeatherCatV1.21B27,2013-10-12 13:31:00,
2013-10-12 14:41:00,51.4,47.0,30.33,NW,315,0.0,3.8,85,0.00,,,0.00,WeatherCatV1.21B27,2013-10-12 13:41:00,
2013-10-12 14:51:00,51.4,46.7,30.32,NW,315,0.0,1.6,84,0.00,,,0.00,WeatherCatV1.21B27,2013-10-12 13:51:00,
2013-10-12 15:01:00,51.4,46.7,30.32,WNW,292,0.9,0.9,84,0.00,,,0.00,WeatherCatV1.21B27,2013-10-12 14:01:00,
2013-10-12 15:11:00,51.4,46.7,30.32,NNW,337,0.0,0.0,84,0.00,,,0.00,WeatherCatV1.21B27,2013-10-12 14:11:00,
2013-10-12 15:21:00,51.4,46.7,30.32,NNW,337,0.0,0.0,84,0.00,,,0.00,WeatherCatV1.21B27,2013-10-12 14:21:00,
2013-10-12 15:31:00,51.4,46.7,30.31,SSE,157,0.0,2.7,84,0.00,,,0.00,WeatherCatV1.21B27,2013-10-12 14:31:00,
2013-10-12 15:41:00,51.3,46.5,30.31,North,0,0.0,0.0,84,0.00,,,0.00,WeatherCatV1.21B27,2013-10-12 14:41:00,
2013-10-12 15:51:00,51.3,46.7,30.30,NNW,337,0.0,3.8,84,0.00,,,0.00,WeatherCatV1.21B27,2013-10-12 14:51:00,
2013-10-12 16:01:00,51.4,46.7,30.31,North,0,2.0,2.0,84,0.00,,,0.00,WeatherCatV1.21B27,2013-10-12 15:01:00,
2013-10-12 16:11:00,51.4,46.7,30.30,SSW,202,1.1,1.1,84,0.00,,,0.00,WeatherCatV1.21B27,2013-10-12 15:11:00,
2013-10-12 16:21:00,51.4,46.7,30.30,NNW,337,0.0,1.8,84,0.00,,,0.00,WeatherCatV1.21B27,2013-10-12 15:21:00,
2013-10-12 16:31:00,51.4,46.7,30.29,SSW,202,2.0,2.0,84,0.00,,,0.00,WeatherCatV1.21B27,2013-10-12 15:31:00,
2013-10-12 16:41:00,51.6,46.9,30.29,SSE,157,0.0,0.0,84,0.00,,,0.00,WeatherCatV1.21B27,2013-10-12 15:41:00,
2013-10-12 16:51:00,51.4,46.7,30.29,WNW,292,0.0,1.6,84,0.00,,,0.00,WeatherCatV1.21B27,2013-10-12 15:51:00,
2013-10-12 17:01:00,51.4,47.0,30.28,North,0,0.0,0.0,84,0.00,,,0.00,WeatherCatV1.21B27,2013-10-12 16:01:00,
2013-10-12 17:11:00,51.4,47.0,30.28,NW,315,0.0,2.2,85,0.00,,,0.00,WeatherCatV1.21B27,2013-10-12 16:11:00,
2013-10-12 17:21:00,51.4,47.0,30.28,South,180,0.0,2.0,85,0.00,,,0.00,WeatherCatV1.21B27,2013-10-12 16:21:00,
2013-10-12 17:31:00,51.4,47.0,30.28,North,0,0.0,1.3,85,0.00,,,0.00,WeatherCatV1.21B27,2013-10-12 16:31:00,
2013-10-12 17:41:00,51.3,46.8,30.28,North,0,0.0,0.9,85,0.00,,,0.00,WeatherCatV1.21B27,2013-10-12 16:41:00,
2013-10-12 17:51:00,51.3,46.8,30.28,North,0,0.0,0.0,85,0.00,,,0.00,WeatherCatV1.21B27,2013-10-12 16:51:00,
2013-10-12 18:01:00,51.3,47.2,30.28,NNW,337,0.0,0.0,86,0.00,,,0.00,WeatherCatV1.21B27,2013-10-12 17:01:00,
2013-10-12 18:11:00,51.1,46.7,30.27,NE,45,0.0,5.1,85,0.00,,,0.00,WeatherCatV1.21B27,2013-10-12 17:11:00,
2013-10-12 18:21:00,51.1,46.7,30.27,WSW,247,0.0,1.1,85,0.00,,,0.00,WeatherCatV1.21B27,2013-10-12 17:21:00,
2013-10-12 18:31:00,51.1,47.0,30.27,NW,315,0.0,2.2,86,0.00,,,0.00,WeatherCatV1.21B27,2013-10-12 17:31:00,
2013-10-12 18:41:00,51.1,47.0,30.27,North,0,6.3,6.3,86,0.00,,,0.00,WeatherCatV1.21B27,2013-10-12 17:41:00,
2013-10-12 18:51:00,51.1,47.0,30.26,NW,315,0.0,1.6,86,0.00,,,0.00,WeatherCatV1.21B27,2013-10-12 17:51:00,
2013-10-12 19:01:00,51.1,46.7,30.27,NNW,337,0.9,2.0,85,0.00,,,0.00,WeatherCatV1.21B27,2013-10-12 18:01:00,
2013-10-12 19:11:00,51.1,46.7,30.27,South,180,0.0,1.8,85,0.00,,,0.00,WeatherCatV1.21B27,2013-10-12 18:11:00,
2013-10-12 19:21:00,51.3,46.8,30.27,SSE,157,0.0,1.1,85,0.00,,,0.00,WeatherCatV1.21B27,2013-10-12 18:21:00,
2013-10-12 19:31:00,51.3,46.8,30.27,North,0,0.0,0.0,85,0.00,,,0.00,WeatherCatV1.21B27,2013-10-12 18:31:00,
2013-10-12 19:41:00,51.3,46.5,30.27,SE,135,0.0,1.3,84,0.00,,,0.00,WeatherCatV1.21B27,2013-10-12 18:41:00,
2013-10-12 19:51:00,51.1,46.4,30.27,NNW,337,0.0,0.0,84,0.00,,,0.00,WeatherCatV1.21B27,2013-10-12 18:51:00,
2013-10-12 20:01:00,50.9,46.2,30.26,SSW,202,0.0,0.0,84,0.00,,,0.00,WeatherCatV1.21B27,2013-10-12 19:01:00,
2013-10-12 20:11:00,50.7,46.0,30.26,SSE,157,0.0,0.0,84,0.00,,,0.00,WeatherCatV1.21B27,2013-10-12 19:11:00,
2013-10-12 20:21:00,50.7,46.0,30.26,SW,225,0.0,0.0,84,0.00,,,0.00,WeatherCatV1.21B27,2013-10-12 19:21:00,
2013-10-12 20:31:00,50.5,45.5,30.26,NW,315,0.0,0.0,83,0.00,,,0.00,WeatherCatV1.21B27,2013-10-12 19:31:00,
2013-10-12 20:41:00,50.4,45.3,30.26,North,0,0.0,0.0,83,0.00,,,0.00,WeatherCatV1.21B27,2013-10-12 19:41:00,
2013-10-12 20:51:00,50.2,45.2,30.26,NW,315,0.0,0.0,83,0.00,,,0.00,WeatherCatV1.21B27,2013-10-12 19:51:00,
2013-10-12 21:01:00,49.8,44.8,30.25,West,270,0.0,0.0,83,0.00,,,0.00,WeatherCatV1.21B27,2013-10-12 20:01:00,
2013-10-12 21:11:00,49.3,44.3,30.25,SW,225,0.0,0.7,83,0.00,,,0.00,WeatherCatV1.21B27,2013-10-12 20:11:00,
2013-10-12 21:21:00,48.9,43.9,30.25,NNW,337,0.0,0.0,83,0.00,,,0.00,WeatherCatV1.21B27,2013-10-12 20:21:00,
2013-10-12 21:31:00,48.4,43.7,30.25,NNW,337,0.0,0.0,84,0.00,,,0.00,WeatherCatV1.21B27,2013-10-12 20:31:00,
2013-10-12 21:41:00,48.0,43.4,30.25,NE,45,0.0,0.0,84,0.00,,,0.00,WeatherCatV1.21B27,2013-10-12 20:41:00,
2013-10-12 21:51:00,47.8,43.5,30.25,SE,135,0.0,0.0,85,0.00,,,0.00,WeatherCatV1.21B27,2013-10-12 20:51:00,
2013-10-12 22:01:00,47.8,43.5,30.25,ESE,112,0.9,0.9,85,0.00,,,0.00,WeatherCatV1.21B27,2013-10-12 21:01:00,
2013-10-12 22:11:00,47.7,43.4,30.25,South,180,0.0,1.1,85,0.00,,,0.00,WeatherCatV1.21B27,2013-10-12 21:11:00,
2013-10-12 22:21:00,47.1,42.8,30.25,South,180,0.0,0.7,85,0.00,,,0.00,WeatherCatV1.21B27,2013-10-12 21:21:00,
2013-10-12 22:31:00,46.8,42.8,30.24,South,180,0.0,0.0,86,0.00,,,0.00,WeatherCatV1.21B27,2013-10-12 21:31:00,
2013-10-12 22:41:00,46.2,42.3,30.24,South,180,0.0,0.0,86,0.00,,,0.00,WeatherCatV1.21B27,2013-10-12 21:41:00,
2013-10-12 22:51:00,45.7,41.8,30.24,South,180,0.0,0.0,86,0.00,,,0.00,WeatherCatV1.21B27,2013-10-12 21:51:00,
2013-10-12 23:01:00,45.1,41.2,30.24,South,180,0.0,0.0,86,0.00,,,0.00,WeatherCatV1.21B27,2013-10-12 22:01:00,
2013-10-12 23:11:00,44.6,40.7,30.25,South,180,0.0,0.0,86,0.00,,,0.00,WeatherCatV1.21B27,2013-10-12 22:11:00,
2013-10-12 23:21:00,44.1,40.4,30.24,South,180,0.0,0.0,87,0.00,,,0.00,WeatherCatV1.21B27,2013-10-12 22:21:00,
2013-10-12 23:31:00,43.5,39.9,30.23,South,180,0.0,0.0,87,0.00,,,0.00,WeatherCatV1.21B27,2013-10-12 22:31:00,
2013-10-12 23:41:00,43.2,39.5,30.24,South,180,0.0,0.0,87,0.00,,,0.00,WeatherCatV1.21B27,2013-10-12 22:41:00,
2013-10-12 23:51:00,43.0,39.7,30.24,South,180,0.0,0.0,88,0.00,,,0.00,WeatherCatV1.21B27,2013-10-12 22:51:00,